Terug naar catalogus

NIMBUS 2 DEB

ActiefLEO
NORAD 28207·DEBRIS·🇺🇸 United States

Gelanceerd May 15, 1966 vanaf Vandenberg Space Force Base

Loading…

Volgende Passages (komende 24 uur)

TLE

VerouderendSource: Space-Track

Epoch: Sep 12, 2026, 03:16 UTC

1 28207U 66040V   26255.13652387  .00002433  00000-0  25653-2 0  9995
2 28207 100.3004 323.1361 0047630 265.8282 123.5696 13.75353853625065

Volg NIMBUS 2 DEB in realtime met AllMySat

Download on the App Store